Charlotte, NC

3:45 AM EST on February 09, 2016 (GMT -0500)
Charlotte-Douglas International

Weather History for KCLT - May, 2012

Change the Weather History Date:

Monday, May 14, 2012

  Actual Average Record
Temperature  
Mean Temperature 70 °F 67 °F  
Max Temperature 75 °F 78 °F 95 °F (1956)
Min Temperature 64 °F 55 °F 41 °F (1917)
Degree Days  
Heating Degree Days 0 2  
Month to date heating degree days 11 35  
Since 1 July heating degree days 2597 3367  
Cooling Degree Days 5 4  
Month to date cooling degree days 78 36  
Year to date cooling degree days 185 73  
Growing Degree Days 20 (Base 50)    
Moisture  
Dew Point 64 °F    
Average Humidity 83    
Maximum Humidity 93    
Minimum Humidity 73    
Precipitation  
Precipitation 1.29 in 0.10 in 1.34 in (1972)
Month to date precipitation 4.39 1.38  
Year to date precipitation 13.53 15.16  
Snow  
Snow 0.00 in 0.00 in 0.00 in ()
Month to date snowfall 0.0 0.0  
Since 1 July snowfall T 4.3  
Snow Depth 0.00 in    
Sea Level Pressure  
Sea Level Pressure 29.99 in    
Wind  
Wind Speed 9 mph (SSE)    
Max Wind Speed 18 mph    
Max Gust Speed 21 mph    
Visibility 7 miles    
Events Rain , Thunderstorm    
T = Trace of Precipitation, MM = Missing Value Source: NWS Daily Summary

Daily Weather History Graph

Daily Weather History Graph

Search for Another Location

Airport or City:

Trip Planner

Search our weather history database for the weather conditions in past years. The results will help you decide how hot, cold, wet, or windy it might be!

Date:

Astronomy

May. 14, 2012 Rise Set
Actual Time 6:20 AM EDT 8:20 PM EDT
Civil Twilight 5:52 AM EDT 8:48 PM EDT
Nautical Twilight 5:17 AM EDT 9:23 PM EDT
Astronomical Twilight 4:41 AM EDT 9:59 PM EDT
Moon 2:41 AM EDT (5/14) 2:51 PM EDT (5/14)
Length of Visible Light 14h 56m
Length of Day
14h 00m
Waning Crescent, 33% of the Moon is Illuminated
May 14
Waning Crescent
May 20
New
May 28
First Quarter
Jun 4
Full
Jun 11
Last Quarter

Hourly Weather History & Observations

Time (EDT) Temp. Dew Point Humidity Pressure Visibility Wind Dir Wind Speed Gust Speed Precip Events Conditions
12:52 AM 64.0 °F 62.1 °F 93% 30.08 in 6.0 mi SSE 9.2 mph - 0.02 in Rain Light Rain
1:52 AM 64.0 °F 62.1 °F 93% 30.06 in 8.0 mi SE 12.7 mph - 0.00 in   Overcast
2:24 AM 64.4 °F 62.6 °F 94% 30.06 in 8.0 mi SSE 11.5 mph - N/A   Overcast
2:52 AM 64.0 °F 62.1 °F 93% 30.04 in 8.0 mi SSE 11.5 mph - 0.00 in Rain Light Rain
3:52 AM 64.0 °F 62.1 °F 93% 30.02 in 9.0 mi SSE 10.4 mph - 0.00 in Rain Light Rain
4:44 AM 64.4 °F 62.6 °F 94% 30.03 in 7.0 mi SSE 11.5 mph - 0.01 in Rain Light Rain
4:52 AM 64.0 °F 62.1 °F 93% 30.01 in 9.0 mi SSE 11.5 mph - 0.01 in Rain Light Rain
5:24 AM 64.4 °F 62.6 °F 94% 30.02 in 5.0 mi SSE 12.7 mph - 0.03 in Rain Rain
5:39 AM 64.4 °F 62.6 °F 94% 30.02 in 10.0 mi SSE 11.5 mph - 0.03 in Rain Light Rain
5:52 AM 64.0 °F 62.1 °F 93% 30.01 in 10.0 mi SSE 10.4 mph - 0.03 in   Overcast
6:52 AM 64.0 °F 61.0 °F 90% 30.01 in 8.0 mi SE 13.8 mph - 0.00 in Rain Light Rain
7:52 AM 64.9 °F 62.1 °F 90% 30.01 in 10.0 mi SE 12.7 mph - 0.00 in   Overcast
8:52 AM 64.0 °F 62.1 °F 93% 30.00 in 5.0 mi South 12.7 mph - 0.02 in Rain Light Rain
8:55 AM 64.4 °F 62.6 °F 94% 30.02 in 2.0 mi SSE 15.0 mph - 0.01 in Rain Heavy Rain
9:42 AM 64.4 °F 62.6 °F 94% 30.02 in 2.0 mi South 10.4 mph - 0.12 in Rain Rain
9:52 AM 64.0 °F 62.1 °F 93% 30.01 in 2.0 mi South 11.5 mph - 0.18 in Rain Light Rain
10:25 AM 64.4 °F 62.6 °F 94% 30.03 in 2.0 mi South 8.1 mph - 0.10 in Rain Light Rain
10:52 AM 64.0 °F 63.0 °F 96% 30.02 in 2.0 mi Calm Calm - 0.26 in Rain Heavy Rain
11:08 AM 64.4 °F 62.6 °F 94% 30.03 in 1.0 mi Variable 6.9 mph - 0.44 in Rain Heavy Rain
11:13 AM 64.4 °F 62.6 °F 94% 30.04 in 2.0 mi WNW 5.8 mph - 0.46 in Rain Heavy Rain
11:35 AM 64.4 °F 64.4 °F 100% 30.03 in 7.0 mi SSW 4.6 mph - 0.49 in   Overcast
11:52 AM 66.0 °F 64.9 °F 96% 30.02 in 8.0 mi SSW 4.6 mph - 0.49 in Rain Light Rain
12:52 PM 70.0 °F 66.0 °F 87% 30.00 in 10.0 mi South 4.6 mph - 0.01 in   Overcast
1:52 PM 71.1 °F 66.0 °F 84% 29.96 in 10.0 mi South 6.9 mph - 0.00 in Rain Light Rain
2:52 PM 73.0 °F 64.9 °F 76% 29.94 in 10.0 mi South 9.2 mph - 0.00 in   Mostly Cloudy
3:41 PM 69.8 °F 66.2 °F 88% 29.95 in 1.8 mi NNE 4.6 mph - 0.02 in Rain Heavy Rain
3:52 PM 72.0 °F 66.9 °F 84% 29.92 in 7.0 mi SSE 6.9 mph - 0.08 in Rain Light Rain
4:52 PM 73.9 °F 66.9 °F 79% 29.91 in 10.0 mi SSE 8.1 mph - 0.01 in   Mostly Cloudy
5:52 PM 73.9 °F 66.0 °F 76% 29.90 in 10.0 mi SSE 8.1 mph - N/A   Mostly Cloudy
6:52 PM 73.9 °F 64.9 °F 73% 29.91 in 10.0 mi SSE 11.5 mph - N/A   Mostly Cloudy
7:52 PM 71.1 °F 64.9 °F 81% 29.91 in 10.0 mi SE 13.8 mph - N/A   Mostly Cloudy
8:52 PM 69.1 °F 64.9 °F 87% 29.94 in 10.0 mi SSE 11.5 mph - N/A   Mostly Cloudy
9:11 PM 69.8 °F 64.4 °F 83% 29.96 in 6.0 mi SSE 12.7 mph 20.7 mph 0.00 in Rain , Thunderstorm Light Thunderstorms and Rain
9:52 PM 66.9 °F 64.0 °F 90% 29.95 in 10.0 mi Calm Calm - 0.08 in Rain , Thunderstorm Light Thunderstorms and Rain
10:39 PM 66.2 °F 64.4 °F 94% 29.99 in 7.0 mi NNW 8.1 mph - 0.05 in Rain Light Rain
10:52 PM 64.9 °F 63.0 °F 93% 29.98 in 8.0 mi North 5.8 mph - 0.06 in Rain , Thunderstorm Light Thunderstorms and Rain
11:52 PM 64.9 °F 63.0 °F 93% 29.98 in 7.0 mi NNE 3.5 mph - 0.04 in Rain , Thunderstorm Light Thunderstorms and Rain